Weather History for Sheridan, WY

Change the Weather History Date:

Tuesday, November 27, 2012

  Actual Average Record
Temperature  
Mean Temperature 15 °F 27 °F  
Max Temperature 27 °F 40 °F 70 °F (1949)
Min Temperature 2 °F 15 °F -18 °F (1976)
Degree Days  
Heating Degree Days 50 38  
Month to date heating degree days 805 856  
Since 1 July heating degree days 1579 1764  
Cooling Degree Days 0 0  
Month to date cooling degree days 0 0  
Year to date cooling degree days 664 419  
Moisture  
Dew Point 7 °F    
Average Humidity 85    
Maximum Humidity 96    
Minimum Humidity 74    
Precipitation  
Precipitation 0.00 in 0.02 in 0.65 in (1928)
Month to date precipitation 1.09 0.65  
Year to date precipitation 9.03 13.54  
Sea Level Pressure  
Sea Level Pressure 30.25 in    
Wind  
Wind Speed 1 mph (WSW)    
Max Wind Speed 7 mph    
Max Gust Speed 8 mph    
Visibility 8 miles    
Events      
T = Trace of Precipitation, MM = Missing Value Source: NWS Daily Summary

Daily Weather History Graph

Daily Weather History Graph

Search for Another Location

Airport:

Trip Planner

Search our weather history database for the weather conditions in past years. The results will help you decide how hot, cold, wet, or windy it might be!

Date:

Astronomy

Nov. 27, 2012 Rise Set
Actual Time 7:21 AM MST 4:30 PM MST
Civil Twilight 6:48 AM MST 5:02 PM MST
Nautical Twilight 6:12 AM MST 5:39 PM MST
Astronomical Twilight 5:37 AM MST 6:14 PM MST
Moon 4:04 PM MST (11/27) 6:27 AM MST (11/27)
Length of Visible Light 10h 14m
Length of Day
9h 09m
Waxing Gibbous, 99% of the Moon is Illuminated
Nov 27
Waxing Gibbous
Nov 28
Full
Dec 6
Last Quarter
Dec 13
New
Dec 19
First Quarter

Hourly Weather History & Observations

Time (MST) Temp. Windchill Dew Point Humidity Pressure Visibility Wind Dir Wind Speed Gust Speed Precip Events Conditions
12:02 AM 3.2 °F - -0.4 °F 85% 30.08 in 1.0 mi Calm Calm - N/A   Mist
12:05 AM 1.4 °F - -0.4 °F 92% 30.08 in 2.0 mi Calm Calm - N/A   Scattered Clouds
12:11 AM 3.2 °F - 1.4 °F 92% 30.08 in 1.0 mi Calm Calm - N/A   Mist
12:18 AM 5.0 °F - 3.2 °F 92% 30.07 in 0.8 mi Calm Calm - N/A   Clear
12:24 AM 6.8 °F - 3.2 °F 85% 30.07 in 2.0 mi Calm Calm - N/A   Clear
12:33 AM 5.0 °F - 1.4 °F 85% 30.07 in 5.0 mi Calm Calm - N/A   Clear
12:53 AM 6.1 °F - 3.0 °F 87% 30.25 in 5.0 mi Calm Calm - N/A   Clear
1:33 AM 1.4 °F - -0.4 °F 92% 30.05 in 2.5 mi Calm Calm - N/A   Partly Cloudy
1:42 AM 5.0 °F - 1.4 °F 85% 30.06 in 1.8 mi Calm Calm - N/A   Scattered Clouds
1:46 AM 5.0 °F - 3.2 °F 92% 30.06 in 3.0 mi Calm Calm - N/A   Scattered Clouds
1:53 AM 3.9 °F - 1.0 °F 88% 30.25 in 5.0 mi Calm Calm - N/A   Scattered Clouds
2:53 AM 3.0 °F - -0.0 °F 87% 30.27 in 10.0 mi Calm Calm - N/A   Clear
3:53 AM 6.1 °F - 3.0 °F 87% 30.26 in 10.0 mi Calm Calm - N/A   Clear
4:53 AM 3.9 °F - 1.0 °F 88% 30.26 in 10.0 mi Calm Calm - N/A   Clear
5:53 AM 1.9 °F - -0.0 °F 91% 30.29 in 10.0 mi Calm Calm - N/A   Clear
6:53 AM 5.0 °F - 1.9 °F 87% 30.29 in 10.0 mi Calm Calm - N/A   Clear
7:53 AM 5.0 °F - 3.0 °F 92% 30.33 in 10.0 mi Calm Calm - N/A   Clear
8:53 AM 10.0 °F - 7.0 °F 87% 30.34 in 10.0 mi Calm Calm - N/A   Clear
9:53 AM 14.0 °F - 12.9 °F 95% 30.35 in 10.0 mi Calm Calm - N/A   Clear
10:53 AM 18.0 °F 11.1 °F 16.0 °F 92% 30.35 in 10.0 mi South 4.6 mph - N/A   Clear
11:53 AM 21.9 °F - 18.0 °F 85% 30.32 in 10.0 mi Calm Calm - N/A   Clear
12:53 PM 25.0 °F 19.3 °F 17.1 °F 72% 30.30 in 10.0 mi NNW 4.6 mph - N/A   Clear
1:53 PM 25.0 °F - 19.0 °F 78% 30.31 in 10.0 mi Calm Calm - N/A   Clear
2:53 PM 25.0 °F - 19.0 °F 78% 30.32 in 10.0 mi Calm Calm - N/A   Clear
3:53 PM 24.1 °F - 18.0 °F 77% 30.33 in 10.0 mi Calm Calm - N/A   Clear
4:53 PM 16.0 °F - 12.9 °F 88% 30.35 in 10.0 mi Calm Calm - N/A   Clear
5:53 PM 16.0 °F - 12.9 °F 88% 30.36 in 10.0 mi Calm Calm - N/A   Clear
6:53 PM 15.1 °F 9.4 °F 12.0 °F 88% 30.35 in 10.0 mi West 3.5 mph - N/A   Clear
7:53 PM 12.9 °F - 10.0 °F 88% 30.35 in 10.0 mi Calm Calm - N/A   Clear
8:53 PM 12.9 °F 5.2 °F 10.0 °F 88% 30.31 in 10.0 mi North 4.6 mph - N/A   Clear
9:53 PM 9.0 °F - 6.1 °F 88% 30.31 in 10.0 mi Calm Calm - N/A   Clear
10:53 PM 10.0 °F 3.6 °F 8.1 °F 92% 30.29 in 10.0 mi South 3.5 mph - N/A   Clear
11:53 PM 10.9 °F - 7.0 °F 84% 30.26 in 10.0 mi Calm Calm - N/A   Clear